Location: Newark
(39.6172°N, 96.8533°W)
Time: 20:32:53
(UTC+00:00)

ISS - Visible Passes

Search period start: 26 January 2020 00:00
Search period end: 05 February 2020 00:00
Orbit: 416 x 423 km, 51.6° (Epoch: 27 January)

Date Brightness Start Highest point End Pass type
(mag) Time Alt. Az. Time Alt. Az. Time Alt. Az.
26 Jan -2.0 00:23:19 10° W 00:26:13 26° NNW 00:29:07 10° NNE visible
27 Jan -1.3 01:14:31 10° NW 01:16:08 13° NNW 01:16:45 12° N visible
28 Jan -1.4 00:26:17 10° NW 00:28:21 15° NNW 00:30:27 10° NNE visible
29 Jan -1.1 01:17:32 10° NNW 01:18:28 11° N 01:18:34 11° N visible
30 Jan -1.2 00:29:26 10° NNW 00:30:37 11° N 00:31:49 10° NNE visible
31 Jan -1.2 01:19:21 10° NNW 01:20:22 12° N 01:20:22 12° N visible
01 Feb -1.3 00:31:52 10° NNW 00:32:55 11° N 00:33:57 10° NNE visible
02 Feb -1.6 01:20:35 10° NNW 01:22:15 16° N 01:22:15 16° N visible
03 Feb -1.6 00:33:13 10° NNW 00:35:06 14° NNE 00:36:47 11° NE visible
03 Feb -0.8 02:09:15 10° NW 02:09:45 13° NW 02:09:45 13° NW visible
04 Feb -2.6 01:21:48 10° NW 01:24:22 30° N 01:24:22 30° N visible
